ADEOS

Satellite information

Favourite Embed

Satellite Type and Status

PAYLOADIN ORBIT

Key statistics

Satellite ADEOS at a glance.

Uptime

10654

Days in orbit

Revolutions

≈ 14.3

Per day

Orbit

SSO

Sun Synchronous Orbit

Inclination

98.8

Latest

Satellite identification and parameters

Extended collection of information and parameters for ADEOS.

Object identification

Identified? True

Debris? False

Object name: ADEOS

International designator: 1996-046A

Object number (NORAD): 24277

Object ID (CCSDS): 24277

Country: JAPAN (JPN)

Current information (Y/N): Y

RCS size: LARGE

Orbital parameters

Period: 100.678 minutes

Inclination: 98.8385 deg

SMA: 7168.869 km

Apoapsis: 792.439 km

Periapsis: 789.03 km

RAAN: 335.5004 deg

Eccentricy: 0.00023779

Argument of periapsis: 98.8694 deg

Mean anomaly: 261.2757 deg

Mean motion: 14.30298809 rev/day

Mean motion (dot): 0.00000185 rev/day2

B* drag term: 0.000089176635 1/REarth

Two-line elements (TLE)

Creation date: Oct. 16, 2025, 6:34 p.m.

Reference frame: TEME

Reference center: EARTH

Epoch: Oct. 16, 2025, 9:06 a.m. UTC

TLE line 0: 0 ADEOS

TLE line 1: 1 24277U 96046A 25289.37928121 .00000185 00000-0 89177-4 0 9996

TLE line 2: 2 24277 98.8385 335.5004 0002378 98.8694 261.2757 14.30298809520819

Live tracking on map

Real-time ground track for satellite ADEOS.

In-orbit conjunctions

A list of the most updated potential collisions computed for object ADEOS.

Target Orbit TCA Probability of collision Miss distance Type
CZ-6A DEB LEO 2025-03-01 17:48:46 0.0006217393 157.0 (m) DEBRIS
FENGYUN 1C DEB SSO 2025-01-21 21:29:02 0.000173287 408.0 (m) DEBRIS
IRIDIUM 33 DEB LEO 2024-12-04 04:44:17 0.0009017441 134.0 (m) DEBRIS
NOAA 8 SSO 2024-11-10 19:34:18 0.001625219 678.0 (m) PAYLOAD
FENGYUN 1C DEB SSO 2024-09-26 18:35:24 0.000108348 827.0 (m) DEBRIS

Associated space launch

Primary applications of ADEOS (Advanced Earth Observation Satellite), which has been renamed Midori after reaching orbit, include monitoring global environmental changes such as maritime meteorological conditions, atmospheric ozone, and gases that promote global warming. ADEOS was also expected to play a vital role in developing more sophisticated inter-orbit communications and platform technology for the satellite of tomorrow. ADEOS was launched by H-2 Launch Vehicle No.4 on August 1996 and provided a large volume of data containing valuable information about our environment atmosphere, ocean and land for about 10 months until it suddenly got out of control on 30 June 1997 because of the structural damage in its solar array paddle.

ADEOS was lifted into orbit during the mission ‘H-II | Midori’, on board a H-II space rocket.

The launch took place on Aug. 17, 1996, 1:53 a.m. from Yoshinobu Launch Complex LP-1.

For more information about the launch, click the button.

Launch to space H-II | Midori
H-II | Midori

Agency: N/A

Status: Launch Successful

Launch date: Aug. 17, 1996, 1:53 a.m. UTC

Rocket: H-II

Launch pad: Yoshinobu Launch Complex LP-1

Location: Tanegashima Space Center, Japan

...

Latest news about this satellite

There are no fresh news available about this satellite. Check back as we update our databases every day.


Newsletter sign-up

Weekly statistics, charts and insights to help you stay on top of the space industry.